STARLINK-1288

decayed
NORAD ID: 45372 Int'l Des: 2020-019 Owner: SPXS Country: US Constellation: starlink
LEOCIRCULAR
Gruppe

Über STARLINK-1288

Beschreibung wird geladen...

Höhenverlauf

Altitude vs Time

uPlot chart will show altitude changes over time

Zweizeiliger Elementsatz

1 45372U 20019N 24251.43690226 .28027671 12350-4 30381-2 0 9994
2 45372 53.0303 26.8380 0009673 301.6491 173.2216 16.36433650248185
Epoch: 7. Sept. 2024 • Age: 8957 hours

Aktueller Status

Position data unavailable
Startdatum 18. März 2020
Alter 5.4 years
Verglühungsdatum 7. Sept. 2024
Typ internet

Technische Details

Klassifizierung Payload
Masse 260.00 kg
Trockenmasse 248.00 kg
Gesamtmasse 260.00 kg
Länge 0.20 m
Durchmesser 2.80 m
Spannweite 9.00 m
Form Box + pan
Hersteller SPXS
Bus-Typ Starlink
Phasenstatus Reentered
Besitzer/Staat SPXS/US

Große Konstellationen

Loading constellations...